Aérodrome :
LOGIN :

S'inscrire | Disclaimer

   EN    FR    IT 

 










Légende :    VFR   VFR Marginal   IFR   IFR Intensif   IFR Très Intensif
Visi : 
Plafond : 
>= 8 km
>= 3000ft
5 à 8 km
1000 à 3000 ft
1500m à 5 km
500 à 1000 ft
800 à 1500m
200 à 500 ft
< 800m
< 200 ft
Symboles :   Orages  Brouillard  Fortes neiges  Fortes précipitations  Vent > 20 kt
SIGMETs :   Divers  Orages  Givrage  Turbulence  Onde Orograph.  Cendres Volcan.







- Altitude de l'aérodrome : 187 ft


LPMR - Monte Real Air Base

DERNIER METAR :
  • 151700Z VRB02KT 6000 SCT006 BKN015 17/17 Q1015

METARs EXPIRÉS :
  • 151600Z VRB02KT 3500 -DZ BR BKN006 BKN014 17/17 Q1008
  • 151500Z VRB02KT 7000 -DZ SCT008 BKN015 BKN025 17/16 Q1007

TAF TAF LPMR
Valide du 15 à 18h jusqu'au 16 à 18h UTC


151702Z 1518/1618 VRB02KT 9999 SCT008 BKN014
PROB40 1521/1606 3000 BR BKN007
BECMG 1601/1603 SCT014 SCT020
BECMG 1610/1612 36008KT FEW020 BKN025
Pas de NOTAMs connus pour ce terrain.



MET'MAP, la Météo Aéronautique d'un coup d'oeil ! - Copyright ORBIFLY Décembre 2007 - Disclaimer

ORBIFLY MET'MAP TEAM :

Programmation & Développement : Alexandra Zaïnal
Conception & Développement : Baudouin d'Aumeries
Co-Programmation & Développement : Marc-Olivier Méhu
Soutien technique & logistique : Manuel Goepfert

Contact : metmap@orbifly.com




SOURCES & CREDITS :

   NOAA